| time (UTC) | temp F | wind direction | speed MPH | gust MPH | rain 1hr in | rain 24hr in | rain mn in | humidity % | barometer mb |
| 20260831205535 | 78 | 86 | 1.0 | 8.0 | 0.98 | 1.44 | 0.99 | 93 | 1017.1 |
| 20260831205035 | 78 | 228 | 0.0 | 1.0 | 0.98 | 1.44 | 0.99 | 92 | 1016.9 |
| 20260831204534 | 78 | 227 | 0.0 | 1.0 | 0.98 | 1.44 | 0.99 | 92 | 1016.8 |
| 20260831204305 | 78 | 228 | 0.0 | 1.0 | 0.98 | 1.44 | 0.99 | 92 | 1016.9 |
| 20260831203806 | 78 | 228 | 0.0 | 4.0 | 0.97 | 1.43 | 0.98 | 91 | 1017.1 |
| 20260831203035 | 78 | 228 | 1.0 | 4.0 | 0.97 | 1.43 | 0.98 | 90 | 1017.2 |
| 20260831202534 | 78 | 167 | 1.0 | 4.0 | 0.95 | 1.41 | 0.97 | 88 | 1017.1 |
| 20260831202035 | 79 | 201 | 2.0 | 4.0 | 0.91 | 1.37 | 0.92 | 87 | 1017.3 |
| 20260831201806 | 80 | 199 | 3.0 | 8.0 | 0.83 | 1.29 | 0.85 | 84 | 1017.4 |
| 20260831201035 | 82 | 215 | 4.0 | 10.0 | 0.50 | 0.96 | 0.56 | 80 | 1017.3 |
| 20260831200806 | 86 | 108 | 3.0 | 10.0 | 0.13 | 0.59 | 0.18 | 76 | 1017.4 |
| 20260831200306 | 88 | 157 | 1.0 | 4.0 | 0.00 | 0.46 | 0.01 | 72 | 1016.6 |
| 20260831195534 | 89 | 262 | 1.0 | 4.0 | 0.00 | 0.46 | 0.01 | 70 | 1016.5 |
| 20260831195035 | 89 | 242 | 0.0 | 2.0 | 0.00 | 0.46 | 0.01 | 69 | 1016.7 |
| 20260831194535 | 90 | 69 | 0.0 | 1.0 | 0.00 | 0.46 | 0.01 | 70 | 1016.7 |
| 20260831194034 | 90 | 69 | 1.0 | 3.0 | 0.00 | 0.46 | 0.01 | 68 | 1016.7 |
| 20260831193534 | 90 | 69 | 1.0 | 3.0 | 0.00 | 0.46 | 0.01 | 66 | 1016.8 |
| 20260831193035 | 91 | 97 | 1.0 | 4.0 | 0.00 | 0.46 | 0.01 | 62 | 1016.9 |
| 20260831192534 | 91 | 94 | 2.0 | 6.0 | 0.00 | 0.46 | 0.01 | 61 | 1016.9 |
| 20260831192034 | 91 | 89 | 2.0 | 6.0 | 0.00 | 0.46 | 0.01 | 63 | 1017.0 |
| 20260831191535 | 91 | 77 | 2.0 | 7.0 | 0.00 | 0.46 | 0.01 | 62 | 1017.0 |
| 20260831191035 | 91 | 115 | 2.0 | 7.0 | 0.00 | 0.46 | 0.01 | 62 | 1017.1 |
| 20260831190535 | 91 | 127 | 2.0 | 6.0 | 0.00 | 0.46 | 0.01 | 61 | 1017.1 |
| 20260831190035 | 91 | 72 | 2.0 | 6.0 | 0.00 | 0.47 | 0.01 | 62 | 1017.2 |
| 20260831185807 | 91 | 91 | 3.0 | 7.0 | 0.00 | 0.49 | 0.01 | 62 | 1017.2 |
| 20260831185035 | 91 | 58 | 3.0 | 7.0 | 0.00 | 0.51 | 0.01 | 61 | 1017.2 |
| 20260831184535 | 91 | 1 | 2.0 | 7.0 | 0.00 | 0.53 | 0.01 | 64 | 1017.3 |
| 20260831184035 | 91 | 84 | 2.0 | 5.0 | 0.00 | 0.55 | 0.01 | 63 | 1017.2 |
| 20260831183534 | 92 | 113 | 2.0 | 5.0 | 0.00 | 0.55 | 0.01 | 62 | 1017.2 |
| 20260831183035 | 92 | 118 | 1.0 | 5.0 | 0.00 | 0.56 | 0.01 | 61 | 1017.3 |
| 20260831182526 | 92 | 117 | 2.0 | 5.0 | 0.00 | 0.61 | 0.01 | 62 | 1017.3 |
| 20260831182027 | 91 | 88 | 2.0 | 6.0 | 0.00 | 0.61 | 0.01 | 61 | 1017.4 |
| 20260831181757 | 91 | 127 | 2.0 | 7.0 | 0.00 | 0.61 | 0.01 | 64 | 1017.5 |
| 20260831181027 | 91 | 63 | 2.0 | 7.0 | 0.00 | 0.62 | 0.01 | 62 | 1017.6 |
| 20260831180526 | 91 | 62 | 2.0 | 5.0 | 0.00 | 0.63 | 0.01 | 65 | 1017.6 |
| 20260831180027 | 90 | 98 | 3.0 | 6.0 | 0.00 | 0.63 | 0.01 | 62 | 1017.7 |
| 20260831175526 | 90 | 86 | 3.0 | 6.0 | 0.00 | 0.63 | 0.01 | 63 | 1017.7 |
| 20260831175027 | 90 | 103 | 3.0 | 7.0 | 0.00 | 0.63 | 0.01 | 64 | 1017.8 |
| 20260831174526 | 90 | 84 | 3.0 | 7.0 | 0.00 | 0.63 | 0.01 | 64 | 1017.7 |
| 20260831174026 | 90 | 106 | 3.0 | 7.0 | 0.00 | 0.63 | 0.01 | 64 | 1017.8 |
| 20260831173526 | 90 | 108 | 2.0 | 7.0 | 0.00 | 0.63 | 0.01 | 64 | 1017.8 |
| 20260831173027 | 90 | 69 | 2.0 | 5.0 | 0.00 | 0.63 | 0.01 | 67 | 1017.8 |
| 20260831172526 | 89 | 79 | 3.0 | 8.0 | 0.00 | 0.63 | 0.01 | 64 | 1017.8 |
| 20260831172257 | 89 | 73 | 4.0 | 9.0 | 0.00 | 0.63 | 0.01 | 64 | 1017.9 |
| 20260831171527 | 89 | 41 | 3.0 | 9.0 | 0.00 | 0.63 | 0.01 | 65 | 1017.9 |
| 20260831171026 | 89 | 76 | 3.0 | 7.0 | 0.00 | 0.63 | 0.01 | 65 | 1017.9 |
| 20260831170757 | 89 | 108 | 2.0 | 7.0 | 0.00 | 0.63 | 0.01 | 65 | 1017.9 |
| 20260831170026 | 89 | 125 | 3.0 | 7.0 | 0.00 | 0.63 | 0.01 | 65 | 1018.0 |
| 20260831165755 | 89 | 94 | 3.0 | 7.0 | 0.00 | 0.63 | 0.01 | 66 | 1018.1 |
| 20260831165022 | 89 | 186 | 3.0 | 6.0 | 0.00 | 0.63 | 0.01 | 66 | 1018.1 |
| 20260831164523 | 89 | 68 | 3.0 | 7.0 | 0.00 | 0.63 | 0.01 | 66 | 1018.2 |
| 20260831164252 | 89 | 129 | 3.0 | 7.0 | 0.00 | 0.63 | 0.01 | 67 | 1018.3 |
| 20260831163520 | 89 | 77 | 2.0 | 6.0 | 0.00 | 0.63 | 0.01 | 68 | 1018.3 |
| 20260831163018 | 89 | 48 | 2.0 | 6.0 | 0.00 | 0.63 | 0.01 | 67 | 1018.3 |
| 20260831162516 | 89 | 79 | 3.0 | 6.0 | 0.00 | 0.63 | 0.01 | 70 | 1018.3 |
| 20260831162017 | 88 | 99 | 2.0 | 6.0 | 0.00 | 0.63 | 0.01 | 69 | 1018.4 |
| 20260831161514 | 89 | 41 | 3.0 | 7.0 | 0.00 | 0.63 | 0.01 | 70 | 1018.4 |
| 20260831161013 | 88 | 101 | 3.0 | 7.0 | 0.00 | 0.63 | 0.01 | 71 | 1018.4 |
| 20260831160741 | 88 | 71 | 3.0 | 7.0 | 0.00 | 0.63 | 0.01 | 69 | 1018.4 |
| 20260831160010 | 88 | 79 | 3.0 | 7.0 | 0.00 | 0.63 | 0.01 | 71 | 1018.5 |
| 20260831155509 | 88 | 82 | 3.0 | 7.0 | 0.00 | 0.63 | 0.01 | 72 | 1018.6 |
| 20260831155008 | 87 | 78 | 4.0 | 7.0 | 0.00 | 0.63 | 0.01 | 75 | 1018.5 |
| 20260831154508 | 87 | 48 | 4.0 | 8.0 | 0.00 | 0.63 | 0.01 | 72 | 1018.5 |
| 20260831154008 | 87 | 60 | 3.0 | 8.0 | 0.00 | 0.63 | 0.01 | 72 | 1018.5 |
| 20260831153509 | 87 | 85 | 3.0 | 6.0 | 0.00 | 0.63 | 0.01 | 73 | 1018.5 |
| 20260831153008 | 87 | 49 | 2.0 | 6.0 | 0.00 | 0.63 | 0.01 | 75 | 1018.4 |
| 20260831152508 | 87 | 58 | 3.0 | 6.0 | 0.00 | 0.63 | 0.01 | 74 | 1018.4 |
| 20260831152009 | 87 | 60 | 3.0 | 7.0 | 0.00 | 0.63 | 0.01 | 77 | 1018.4 |
| 20260831151504 | 86 | 77 | 3.0 | 7.0 | 0.00 | 0.63 | 0.01 | 77 | 1018.4 |
| 20260831151002 | 86 | 47 | 3.0 | 7.0 | 0.00 | 0.63 | 0.01 | 77 | 1018.4 |
| 20260831150502 | 86 | 65 | 3.0 | 7.0 | 0.00 | 0.63 | 0.01 | 77 | 1018.5 |
| 20260831150237 | 86 | 52 | 3.0 | 7.0 | 0.00 | 0.63 | 0.01 | 77 | 1018.4 |
| 20260831145501 | 86 | 48 | 3.0 | 7.0 | 0.00 | 0.63 | 0.01 | 78 | 1018.3 |
| 20260831145000 | 85 | 103 | 3.0 | 7.0 | 0.00 | 0.63 | 0.01 | 79 | 1018.2 |
| 20260831144501 | 85 | 68 | 3.0 | 7.0 | 0.00 | 0.63 | 0.01 | 80 | 1018.2 |
| 20260831144000 | 85 | 85 | 3.0 | 7.0 | 0.00 | 0.63 | 0.01 | 79 | 1018.4 |
| 20260831143500 | 85 | 114 | 3.0 | 7.0 | 0.00 | 0.63 | 0.01 | 82 | 1018.4 |
| 20260831143001 | 85 | 98 | 3.0 | 7.0 | 0.00 | 0.63 | 0.01 | 81 | 1018.3 |
| 20260831142458 | 84 | 96 | 3.0 | 7.0 | 0.00 | 0.63 | 0.01 | 81 | 1018.3 |
| 20260831141957 | 84 | 44 | 2.0 | 5.0 | 0.00 | 0.63 | 0.01 | 81 | 1018.2 |
| 20260831141456 | 84 | 63 | 3.0 | 6.0 | 0.00 | 0.63 | 0.01 | 83 | 1018.2 |
| 20260831140957 | 83 | 84 | 3.0 | 7.0 | 0.00 | 0.63 | 0.01 | 82 | 1018.2 |
| 20260831140459 | 83 | 108 | 3.0 | 9.0 | 0.00 | 0.63 | 0.01 | 83 | 1018.1 |
| 20260831140455 | 83 | 87 | 3.0 | 9.0 | 0.00 | 0.63 | 0.01 | 83 | 1018.1 |
| 20260831135724 | 82 | 42 | 3.0 | 6.0 | 0.00 | 0.63 | 0.01 | 83 | 1018.1 |
| 20260831134952 | 82 | 101 | 3.0 | 6.0 | 0.00 | 0.63 | 0.01 | 84 | 1018.1 |
| 20260831134450 | 82 | 117 | 3.0 | 7.0 | 0.00 | 0.63 | 0.01 | 84 | 1018.1 |
| 20260831133949 | 81 | 54 | 3.0 | 7.0 | 0.00 | 0.63 | 0.01 | 85 | 1018.2 |
| 20260831133719 | 81 | 55 | 2.0 | 5.0 | 0.00 | 0.63 | 0.01 | 85 | 1018.2 |
| 20260831132948 | 81 | 79 | 2.0 | 5.0 | 0.00 | 0.63 | 0.01 | 86 | 1018.2 |
| 20260831132449 | 80 | 88 | 3.0 | 5.0 | 0.00 | 0.63 | 0.01 | 87 | 1018.2 |
| 20260831132445 | 80 | 69 | 2.0 | 5.0 | 0.00 | 0.63 | 0.01 | 86 | 1018.2 |
| 20260831131443 | 80 | 53 | 3.0 | 6.0 | 0.00 | 0.63 | 0.01 | 87 | 1018.2 |
| 20260831130942 | 79 | 76 | 3.0 | 6.0 | 0.00 | 0.63 | 0.01 | 87 | 1018.2 |
| 20260831130439 | 79 | 86 | 3.0 | 6.0 | 0.00 | 0.63 | 0.01 | 89 | 1018.1 |
| 20260831125938 | 78 | 51 | 3.0 | 6.0 | 0.00 | 0.63 | 0.01 | 89 | 1018.1 |
| 20260831125709 | 78 | 65 | 3.0 | 7.0 | 0.01 | 0.63 | 0.01 | 89 | 1018.0 |
| 20260831124939 | 78 | 51 | 3.0 | 7.0 | 0.01 | 0.63 | 0.01 | 89 | 1017.9 |
| 20260831124438 | 78 | 49 | 3.0 | 7.0 | 0.01 | 0.63 | 0.01 | 90 | 1017.8 |
| 20260831123938 | 77 | 80 | 3.0 | 7.0 | 0.01 | 0.63 | 0.01 | 90 | 1017.7 |
| 20260831123438 | 77 | 63 | 3.0 | 7.0 | 0.01 | 0.63 | 0.01 | 91 | 1017.6 |
| 20260831122938 | 77 | 36 | 3.0 | 7.0 | 0.01 | 0.63 | 0.01 | 91 | 1017.6 |
| 20260831122438 | 77 | 71 | 3.0 | 6.0 | 0.01 | 0.63 | 0.01 | 91 | 1017.7 |
| 20260831121939 | 76 | 96 | 2.0 | 5.0 | 0.01 | 0.63 | 0.01 | 92 | 1017.7 |
| 20260831121438 | 76 | 75 | 2.0 | 5.0 | 0.01 | 0.63 | 0.01 | 92 | 1017.6 |
| 20260831121209 | 76 | 76 | 2.0 | 5.0 | 0.01 | 0.63 | 0.01 | 93 | 1017.5 |
| 20260831120438 | 76 | 56 | 2.0 | 4.0 | 0.01 | 0.63 | 0.01 | 93 | 1017.3 |
| 20260831115939 | 75 | 60 | 2.0 | 4.0 | 0.01 | 0.63 | 0.01 | 93 | 1017.3 |
| 20260831115438 | 75 | 47 | 1.0 | 4.0 | 0.00 | 0.62 | 0.00 | 94 | 1017.3 |
| 20260831114938 | 75 | 75 | 1.0 | 2.0 | 0.00 | 0.62 | 0.00 | 94 | 1017.3 |
| 20260831114439 | 75 | 75 | 1.0 | 2.0 | 0.00 | 0.62 | 0.00 | 94 | 1017.1 |
| 20260831114209 | 75 | 75 | 1.0 | 2.0 | 0.00 | 0.62 | 0.00 | 94 | 1017.1 |
| 20260831113439 | 75 | 75 | 0.0 | 2.0 | 0.00 | 0.62 | 0.00 | 94 | 1017.0 |
| 20260831112938 | 75 | 75 | 0.0 | 2.0 | 0.00 | 0.62 | 0.00 | 94 | 1017.0 |
| 20260831112439 | 75 | 75 | 0.0 | 1.0 | 0.00 | 0.62 | 0.00 | 94 | 1017.1 |
| 20260831111938 | 75 | 75 | 0.0 | 2.0 | 0.00 | 0.62 | 0.00 | 94 | 1016.9 |
| 20260831111439 | 75 | 75 | 0.0 | 2.0 | 0.00 | 0.62 | 0.00 | 94 | 1016.8 |
| 20260831110938 | 75 | 63 | 1.0 | 2.0 | 0.00 | 0.62 | 0.00 | 94 | 1016.9 |
| 20260831110439 | 75 | 84 | 1.0 | 2.0 | 0.00 | 0.62 | 0.00 | 94 | 1016.9 |
| 20260831105942 | 75 | 63 | 1.0 | 1.0 | 0.00 | 0.62 | 0.00 | 94 | 1017.0 |
| 20260831105938 | 75 | 63 | 1.0 | 2.0 | 0.00 | 0.62 | 0.00 | 94 | 1016.9 |
| 20260831105209 | 75 | 63 | 1.0 | 2.0 | 0.00 | 0.62 | 0.00 | 94 | 1016.9 |
| 20260831104438 | 75 | 63 | 0.0 | 2.0 | 0.00 | 0.62 | 0.00 | 94 | 1016.8 |
| 20260831104208 | 75 | 67 | 0.0 | 1.0 | 0.00 | 0.62 | 0.00 | 94 | 1016.7 |
| 20260831103436 | 75 | 67 | 1.0 | 2.0 | 0.00 | 0.62 | 0.00 | 94 | 1016.5 |
| 20260831102936 | 75 | 66 | 1.0 | 3.0 | 0.00 | 0.62 | 0.00 | 94 | 1016.5 |
| 20260831102436 | 75 | 66 | 1.0 | 3.0 | 0.00 | 0.62 | 0.00 | 94 | 1016.5 |
| 20260831101936 | 75 | 68 | 1.0 | 2.0 | 0.00 | 0.62 | 0.00 | 94 | 1016.5 |
| 20260831101707 | 75 | 67 | 0.0 | 2.0 | 0.00 | 0.62 | 0.00 | 94 | 1016.5 |
| 20260831100936 | 75 | 67 | 0.0 | 2.0 | 0.00 | 0.62 | 0.00 | 94 | 1016.5 |
| 20260831100706 | 75 | 68 | 1.0 | 2.0 | 0.00 | 0.62 | 0.00 | 94 | 1016.5 |
| 20260831095935 | 75 | 67 | 1.0 | 2.0 | 0.00 | 0.62 | 0.00 | 94 | 1016.5 |
| 20260831095434 | 75 | 67 | 1.0 | 2.0 | 0.00 | 0.62 | 0.00 | 94 | 1016.5 |
| 20260831095203 | 75 | 68 | 0.0 | 1.0 | 0.00 | 0.62 | 0.00 | 94 | 1016.5 |
| 20260831094433 | 75 | 68 | 1.0 | 1.0 | 0.00 | 0.62 | 0.00 | 94 | 1016.5 |
| 20260831093932 | 75 | 68 | 1.0 | 2.0 | 0.00 | 0.62 | 0.00 | 94 | 1016.4 |
| 20260831093433 | 75 | 68 | 1.0 | 2.0 | 0.00 | 0.62 | 0.00 | 94 | 1016.4 |
| 20260831092932 | 75 | 133 | 0.0 | 2.0 | 0.00 | 0.62 | 0.00 | 94 | 1016.3 |
| 20260831092702 | 75 | 133 | 0.0 | 2.0 | 0.00 | 0.62 | 0.00 | 94 | 1016.2 |
| 20260831091933 | 75 | 80 | 0.0 | 1.0 | 0.00 | 0.62 | 0.00 | 94 | 1016.2 |
| 20260831091432 | 75 | 80 | 0.0 | 1.0 | 0.00 | 0.62 | 0.00 | 94 | 1016.1 |
| 20260831091204 | 75 | 80 | 0.0 | 1.0 | 0.00 | 0.62 | 0.00 | 94 | 1016.0 |
| 20260831090432 | 75 | 80 | 0.0 | 1.0 | 0.00 | 0.62 | 0.00 | 94 | 1016.0 |
| 20260831085931 | 75 | 80 | 1.0 | 2.0 | 0.00 | 0.62 | 0.00 | 94 | 1016.1 |
| 20260831085430 | 75 | 80 | 1.0 | 2.0 | 0.00 | 0.62 | 0.00 | 94 | 1016.1 |
| 20260831085202 | 75 | 65 | 1.0 | 2.0 | 0.00 | 0.62 | 0.00 | 94 | 1016.1 |
| 20260831084700 | 75 | 34 | 1.0 | 2.0 | 0.00 | 0.62 | 0.00 | 94 | 1016.1 |
| 20260831083928 | 75 | 35 | 1.0 | 2.0 | 0.00 | 0.63 | 0.00 | 94 | 1016.1 |
| 20260831083700 | 76 | 86 | 1.0 | 2.0 | 0.00 | 0.63 | 0.00 | 94 | 1016.0 |
| 20260831082928 | 76 | 77 | 1.0 | 3.0 | 0.00 | 0.63 | 0.00 | 94 | 1016.0 |
| 20260831082428 | 76 | 46 | 1.0 | 3.0 | 0.00 | 0.63 | 0.00 | 94 | 1016.0 |
| 20260831081929 | 76 | 75 | 1.0 | 2.0 | 0.00 | 0.63 | 0.00 | 94 | 1016.0 |
| 20260831081428 | 76 | 75 | 1.0 | 4.0 | 0.00 | 0.63 | 0.00 | 94 | 1016.0 |
| 20260831080926 | 76 | 75 | 2.0 | 4.0 | 0.00 | 0.63 | 0.00 | 94 | 1015.9 |
| 20260831080427 | 76 | 75 | 2.0 | 4.0 | 0.00 | 0.63 | 0.00 | 94 | 1016.0 |
| 20260831075926 | 76 | 80 | 1.0 | 2.0 | 0.00 | 0.63 | 0.00 | 94 | 1016.0 |
| 20260831075427 | 76 | 88 | 1.0 | 2.0 | 0.00 | 0.63 | 0.00 | 95 | 1016.1 |
| 20260831074926 | 76 | 87 | 1.0 | 2.0 | 0.00 | 0.63 | 0.00 | 95 | 1016.2 |
| 20260831074429 | 76 | 88 | 0.0 | 1.0 | 0.00 | 0.63 | 0.00 | 95 | 1016.2 |
| 20260831074425 | 76 | 87 | 0.0 | 2.0 | 0.00 | 0.63 | 0.00 | 95 | 1016.1 |
| 20260831073425 | 76 | 87 | 0.0 | 2.0 | 0.00 | 0.63 | 0.00 | 95 | 1016.2 |
| 20260831072924 | 76 | 87 | 0.0 | 2.0 | 0.00 | 0.63 | 0.00 | 95 | 1016.1 |
| 20260831072424 | 76 | 88 | 0.0 | 1.0 | 0.00 | 0.63 | 0.00 | 95 | 1016.0 |
| 20260831071922 | 76 | 87 | 0.0 | 1.0 | 0.00 | 0.63 | 0.00 | 95 | 1016.0 |
| 20260831071422 | 76 | 87 | 0.0 | 1.0 | 0.00 | 0.63 | 0.00 | 95 | 1016.1 |
| 20260831070921 | 75 | 87 | 0.0 | 0.0 | 0.00 | 0.63 | 0.00 | 95 | 1016.2 |
| 20260831070420 | 76 | 87 | 0.0 | 0.0 | 0.00 | 0.63 | 0.00 | 95 | 1016.2 |
| 20260831065920 | 75 | 87 | 0.0 | 0.0 | 0.00 | 0.63 | 0.00 | 94 | 1016.3 |
| 20260831065421 | 76 | 87 | 0.0 | 0.0 | 0.00 | 0.63 | 0.00 | 94 | 1016.3 |
| 20260831064920 | 76 | 87 | 0.0 | 0.0 | 0.00 | 0.63 | 0.00 | 94 | 1016.5 |
| 20260831064421 | 76 | 87 | 0.0 | 0.0 | 0.00 | 0.63 | 0.00 | 94 | 1016.5 |
| 20260831063920 | 76 | 87 | 0.0 | 0.0 | 0.00 | 0.63 | 0.00 | 94 | 1016.6 |
| 20260831063420 | 76 | 87 | 0.0 | 1.0 | 0.00 | 0.63 | 0.00 | 94 | 1016.6 |
| 20260831063149 | 76 | 87 | 0.0 | 1.0 | 0.00 | 0.63 | 0.00 | 94 | 1016.6 |
| 20260831063023 | 76 | 87 | 0.0 | 1.0 | 0.00 | 0.63 | 0.00 | 94 | 1016.6 |
| 20260831061918 | 76 | 87 | 0.0 | 1.0 | 0.00 | 0.63 | 0.00 | 94 | 1016.7 |
| 20260831061419 | 76 | 87 | 0.0 | 0.0 | 0.00 | 0.63 | 0.00 | 94 | 1016.8 |
| 20260831060919 | 76 | 87 | 0.0 | 1.0 | 0.00 | 0.63 | 0.00 | 94 | 1016.8 |
| 20260831060650 | 76 | 87 | 0.0 | 1.0 | 0.00 | 0.63 | 0.00 | 94 | 1016.8 |
| 20260831055918 | 76 | 88 | 0.0 | 2.0 | 0.00 | 0.63 | 0.00 | 94 | 1016.8 |
| 20260831055418 | 76 | 88 | 0.0 | 2.0 | 0.00 | 0.63 | 0.00 | 94 | 1016.9 |
| 20260831054919 | 76 | 87 | 0.0 | 2.0 | 0.00 | 0.63 | 0.00 | 94 | 1016.8 |
| 20260831054422 | 76 | 84 | 0.0 | 1.0 | 0.00 | 0.63 | 0.00 | 94 | 1016.8 |
| 20260831054418 | 76 | 87 | 0.0 | 2.0 | 0.00 | 0.63 | 0.00 | 95 | 1016.8 |
| 20260831053417 | 76 | 84 | 0.0 | 0.0 | 0.00 | 0.63 | 0.00 | 95 | 1016.8 |
| 20260831053146 | 76 | 84 | 0.0 | 1.0 | 0.00 | 0.63 | 0.00 | 95 | 1016.9 |
| 20260831052414 | 76 | 84 | 0.0 | 1.0 | 0.00 | 0.63 | 0.00 | 95 | 1016.9 |
| 20260831051914 | 76 | 84 | 0.0 | 1.0 | 0.00 | 0.63 | 0.00 | 95 | 1016.9 |
| 20260831051414 | 76 | 84 | 0.0 | 1.0 | 0.00 | 0.63 | 0.00 | 95 | 1016.9 |
| 20260831050915 | 76 | 84 | 0.0 | 1.0 | 0.00 | 0.63 | 0.00 | 95 | 1017.0 |
| 20260831050414 | 76 | 84 | 0.0 | 0.0 | 0.00 | 0.63 | 0.00 | 95 | 1017.0 |
| 20260831045913 | 76 | 84 | 0.0 | 0.0 | 0.00 | 0.63 | 0.63 | 95 | 1016.9 |
| 20260831045413 | 76 | 84 | 0.0 | 0.0 | 0.00 | 0.63 | 0.63 | 95 | 1017.0 |
| 20260831044911 | 76 | 84 | 0.0 | 0.0 | 0.00 | 0.63 | 0.63 | 95 | 1017.1 |
| 20260831044642 | 76 | 84 | 0.0 | 0.0 | 0.00 | 0.63 | 0.63 | 95 | 1017.0 |
| 20260831044142 | 76 | 84 | 0.0 | 0.0 | 0.00 | 0.63 | 0.63 | 95 | 1017.0 |
| 20260831043408 | 76 | 84 | 0.0 | 0.0 | 0.00 | 0.63 | 0.63 | 95 | 1017.2 |
| 20260831042909 | 76 | 84 | 0.0 | 0.0 | 0.00 | 0.63 | 0.63 | 95 | 1017.1 |
| 20260831042408 | 76 | 84 | 0.0 | 0.0 | 0.00 | 0.63 | 0.63 | 95 | 1017.1 |
| 20260831041908 | 76 | 84 | 0.0 | 0.0 | 0.00 | 0.63 | 0.63 | 95 | 1017.2 |
| 20260831041639 | 76 | 84 | 0.0 | 0.0 | 0.00 | 0.63 | 0.63 | 95 | 1017.3 |
| 20260831040908 | 76 | 84 | 0.0 | 0.0 | 0.00 | 0.63 | 0.63 | 95 | 1017.2 |
| 20260831040409 | 76 | 84 | 0.0 | 0.0 | 0.00 | 0.63 | 0.63 | 95 | 1017.2 |
| 20260831035909 | 76 | 84 | 0.0 | 0.0 | 0.00 | 0.63 | 0.63 | 95 | 1017.2 |
| 20260831035640 | 76 | 84 | 0.0 | 0.0 | 0.00 | 0.63 | 0.63 | 95 | 1017.2 |
| 20260831034909 | 76 | 84 | 0.0 | 0.0 | 0.00 | 0.63 | 0.63 | 95 | 1017.3 |
| 20260831034641 | 76 | 84 | 0.0 | 0.0 | 0.00 | 0.63 | 0.63 | 95 | 1017.4 |
| 20260831033909 | 76 | 84 | 0.0 | 0.0 | 0.00 | 0.63 | 0.63 | 94 | 1017.3 |
| 20260831033408 | 76 | 84 | 0.0 | 0.0 | 0.00 | 0.63 | 0.63 | 94 | 1017.3 |
| 20260831032908 | 76 | 84 | 0.0 | 0.0 | 0.00 | 0.63 | 0.63 | 94 | 1017.3 |
| 20260831032409 | 76 | 84 | 0.0 | 0.0 | 0.00 | 0.63 | 0.63 | 94 | 1017.3 |
| 20260831031909 | 76 | 84 | 0.0 | 0.0 | 0.00 | 0.63 | 0.63 | 94 | 1017.4 |
| 20260831031408 | 76 | 84 | 0.0 | 0.0 | 0.00 | 0.63 | 0.63 | 94 | 1017.2 |
| 20260831031140 | 76 | 84 | 0.0 | 0.0 | 0.00 | 0.63 | 0.63 | 94 | 1017.3 |
| 20260831030408 | 76 | 84 | 0.0 | 0.0 | 0.00 | 0.63 | 0.63 | 94 | 1017.3 |
| 20260831025909 | 76 | 84 | 0.0 | 0.0 | 0.00 | 0.63 | 0.63 | 94 | 1017.3 |
| 20260831025409 | 76 | 84 | 0.0 | 0.0 | 0.00 | 0.63 | 0.63 | 94 | 1017.3 |
| 20260831024908 | 76 | 84 | 0.0 | 0.0 | 0.00 | 0.63 | 0.63 | 94 | 1017.3 |
| 20260831024408 | 77 | 84 | 0.0 | 0.0 | 0.00 | 0.63 | 0.63 | 94 | 1017.4 |
| 20260831023909 | 77 | 84 | 0.0 | 0.0 | 0.00 | 0.63 | 0.63 | 94 | 1017.3 |
| 20260831023410 | 77 | 84 | 0.0 | 0.0 | 0.00 | 0.63 | 0.63 | 94 | 1017.2 |
| 20260831022909 | 77 | 84 | 0.0 | 0.0 | 0.00 | 0.63 | 0.63 | 94 | 1017.2 |
| 20260831022409 | 77 | 84 | 0.0 | 0.0 | 0.00 | 0.63 | 0.63 | 94 | 1017.2 |
| 20260831021908 | 77 | 84 | 0.0 | 0.0 | 0.00 | 0.63 | 0.63 | 93 | 1017.1 |
| 20260831021409 | 77 | 84 | 0.0 | 0.0 | 0.00 | 0.63 | 0.63 | 93 | 1017.0 |
| 20260831020908 | 77 | 84 | 0.0 | 0.0 | 0.00 | 0.63 | 0.63 | 94 | 1017.0 |
| 20260831020409 | 77 | 84 | 0.0 | 0.0 | 0.00 | 0.63 | 0.63 | 93 | 1016.9 |
| 20260831015908 | 78 | 84 | 0.0 | 0.0 | 0.00 | 0.63 | 0.63 | 93 | 1016.9 |
| 20260831015639 | 78 | 84 | 0.0 | 0.0 | 0.00 | 0.63 | 0.63 | 93 | 1016.8 |
| 20260831014908 | 78 | 84 | 0.0 | 0.0 | 0.00 | 0.63 | 0.63 | 94 | 1016.7 |
| 20260831014408 | 78 | 84 | 0.0 | 0.0 | 0.00 | 0.63 | 0.63 | 93 | 1016.7 |
| 20260831014140 | 78 | 84 | 0.0 | 0.0 | 0.00 | 0.63 | 0.63 | 93 | 1016.6 |
| 20260831013409 | 78 | 84 | 0.0 | 0.0 | 0.00 | 0.63 | 0.63 | 93 | 1016.5 |
| 20260831012909 | 78 | 84 | 0.0 | 0.0 | 0.00 | 0.63 | 0.63 | 93 | 1016.5 |
| 20260831012409 | 78 | 84 | 0.0 | 0.0 | 0.00 | 0.63 | 0.63 | 93 | 1016.4 |
| 20260831011909 | 78 | 84 | 0.0 | 0.0 | 0.00 | 0.63 | 0.63 | 93 | 1016.3 |
| 20260831011408 | 78 | 84 | 0.0 | 0.0 | 0.00 | 0.63 | 0.63 | 93 | 1016.2 |
| 20260831010908 | 78 | 84 | 0.0 | 0.0 | 0.00 | 0.63 | 0.63 | 92 | 1016.1 |
| 20260831010409 | 78 | 84 | 0.0 | 0.0 | 0.00 | 0.63 | 0.63 | 92 | 1016.1 |
| 20260831005909 | 79 | 84 | 0.0 | 0.0 | 0.00 | 0.63 | 0.63 | 92 | 1016.0 |
| 20260831005406 | 79 | 84 | 0.0 | 0.0 | 0.00 | 0.63 | 0.63 | 92 | 1016.0 |
| 20260831004907 | 79 | 84 | 0.0 | 0.0 | 0.00 | 0.63 | 0.63 | 92 | 1016.0 |
| 20260831004638 | 79 | 84 | 0.0 | 0.0 | 0.00 | 0.63 | 0.63 | 92 | 1016.0 |
| 20260831003906 | 79 | 84 | 0.0 | 0.0 | 0.00 | 0.63 | 0.63 | 91 | 1016.0 |
| 20260831003407 | 80 | 84 | 0.0 | 0.0 | 0.00 | 0.63 | 0.63 | 91 | 1016.0 |
| 20260831003137 | 80 | 84 | 0.0 | 1.0 | 0.00 | 0.63 | 0.63 | 90 | 1016.0 |
| 20260831002407 | 80 | 84 | 0.0 | 2.0 | 0.00 | 0.63 | 0.63 | 90 | 1016.0 |
| 20260831001907 | 80 | 84 | 1.0 | 2.0 | 0.00 | 0.63 | 0.63 | 90 | 1016.1 |
| 20260831001406 | 80 | 84 | 1.0 | 2.0 | 0.00 | 0.63 | 0.63 | 90 | 1016.0 |
| 20260831000907 | 80 | 79 | 1.0 | 2.0 | 0.00 | 0.63 | 0.63 | 90 | 1016.0 |
| 20260831000406 | 80 | 79 | 0.0 | 2.0 | 0.00 | 0.63 | 0.63 | 91 | 1016.0 |
| 20260830235907 | 80 | 87 | 0.0 | 2.0 | 0.00 | 0.63 | 0.63 | 90 | 1016.0 |
| 20260830235409 | 81 | 84 | 0.0 | 0.0 | 0.00 | 0.63 | 0.63 | 89 | 1016.0 |
| 20260830235405 | 81 | 84 | 0.0 | 1.0 | 0.00 | 0.63 | 0.63 | 90 | 1016.0 |
| 20260830234636 | 81 | 84 | 0.0 | 1.0 | 0.00 | 0.63 | 0.63 | 89 | 1015.9 |
| 20260830233904 | 82 | 84 | 0.0 | 2.0 | 0.00 | 0.63 | 0.63 | 87 | 1015.9 |
| 20260830233404 | 81 | 84 | 0.0 | 2.0 | 0.00 | 0.63 | 0.63 | 87 | 1015.9 |
| 20260830232905 | 82 | 47 | 0.0 | 1.0 | 0.00 | 0.63 | 0.63 | 88 | 1015.9 |
| 20260830232405 | 82 | 47 | 0.0 | 1.0 | 0.00 | 0.63 | 0.63 | 88 | 1015.9 |
| 20260830231905 | 82 | 47 | 0.0 | 0.0 | 0.00 | 0.63 | 0.63 | 88 | 1016.0 |
| 20260830231405 | 82 | 47 | 0.0 | 0.0 | 0.00 | 0.63 | 0.63 | 88 | 1015.9 |
| 20260830230904 | 82 | 47 | 0.0 | 1.0 | 0.00 | 0.63 | 0.63 | 89 | 1015.9 |
| 20260830230404 | 81 | 47 | 0.0 | 1.0 | 0.00 | 0.63 | 0.63 | 90 | 1016.0 |
| 20260830225905 | 81 | 48 | 0.0 | 2.0 | 0.00 | 0.63 | 0.63 | 90 | 1016.0 |
| 20260830225404 | 80 | 48 | 0.0 | 2.0 | 0.00 | 0.63 | 0.63 | 90 | 1016.1 |
| 20260830224904 | 80 | 47 | 0.0 | 2.0 | 0.00 | 0.63 | 0.63 | 90 | 1016.1 |
| 20260830224635 | 80 | 47 | 0.0 | 2.0 | 0.00 | 0.63 | 0.63 | 90 | 1016.1 |
| 20260830223904 | 79 | 45 | 0.0 | 1.0 | 0.00 | 0.63 | 0.63 | 91 | 1016.1 |
| 20260830223404 | 79 | 45 | 0.0 | 1.0 | 0.00 | 0.63 | 0.63 | 91 | 1016.1 |
| 20260830223136 | 78 | 45 | 0.0 | 1.0 | 0.00 | 0.63 | 0.63 | 90 | 1016.3 |
| 20260830222404 | 78 | 45 | 0.0 | 1.0 | 0.04 | 0.63 | 0.63 | 90 | 1016.4 |
| 20260830221905 | 78 | 44 | 0.0 | 1.0 | 0.08 | 0.63 | 0.63 | 90 | 1016.5 |
| 20260830221404 | 78 | 46 | 0.0 | 1.0 | 0.22 | 0.63 | 0.63 | 90 | 1016.5 |
| 20260830220904 | 78 | 46 | 1.0 | 3.0 | 0.40 | 0.63 | 0.63 | 90 | 1016.4 |
| 20260830220405 | 78 | 46 | 1.0 | 4.0 | 0.45 | 0.63 | 0.63 | 90 | 1016.3 |
| 20260830220135 | 78 | 42 | 1.0 | 4.0 | 0.45 | 0.63 | 0.63 | 90 | 1016.3 |
| 20260830215405 | 78 | 66 | 2.0 | 3.0 | 0.45 | 0.63 | 0.63 | 90 | 1016.2 |
| 20260830214904 | 79 | 60 | 2.0 | 4.0 | 0.45 | 0.65 | 0.63 | 89 | 1016.2 |
| 20260830214405 | 79 | 353 | 2.0 | 6.0 | 0.45 | 0.70 | 0.63 | 89 | 1016.2 |
| 20260830213905 | 79 | 44 | 2.0 | 6.0 | 0.45 | 0.77 | 0.63 | 89 | 1016.4 |
| 20260830213404 | 79 | 32 | 2.0 | 6.0 | 0.45 | 0.88 | 0.63 | 89 | 1016.5 |
| 20260830212905 | 80 | 74 | 1.0 | 4.0 | 0.45 | 0.90 | 0.63 | 87 | 1016.5 |
| 20260830212404 | 81 | 322 | 1.0 | 3.0 | 0.41 | 0.87 | 0.60 | 84 | 1016.5 |
| 20260830211904 | 82 | 28 | 2.0 | 5.0 | 0.37 | 0.84 | 0.56 | 80 | 1016.5 |
| 20260830211405 | 85 | 291 | 3.0 | 9.0 | 0.23 | 0.70 | 0.42 | 75 | 1016.4 |
| 20260830210904 | 88 | 131 | 2.0 | 9.0 | 0.05 | 0.52 | 0.24 | 67 | 1016.3 |
| 20260830210405 | 90 | 144 | 1.0 | 5.0 | 0.00 | 0.47 | 0.18 | 66 | 1016.2 |
| 20260830205905 | 91 | 84 | 1.0 | 4.0 | 0.00 | 0.48 | 0.18 | 65 | 1016.2 |